GW5671 Weather Reports


Display with metric or nautical units.
time (UTC)temp
F
wind
direction
speed
MPH
gust
MPH
rain 1hr
in
rain 24hr
in
rain mn
in
humidity
%
barometer
mb
20260507162003 58 151 3.0 10.0 0.00 0.00 0.00 69 1014.4
20260507161505 58 159 2.0 9.0 0.00 0.00 0.00 67 1014.4
20260507161003 58 153 2.0 8.0 0.00 0.00 0.00 68 1014.3
20260507160503 58 138 1.0 8.0 0.00 0.00 0.00 68 1014.3
20260507160005 58 143 1.0 7.0 0.00 0.00 0.00 70 1014.3
20260507155505 58 150 1.0 7.0 0.00 0.00 0.00 69 1014.3
20260507154503 58 144 3.0 9.0 0.00 0.00 0.00 67 1014.3
20260507154005 58 142 4.0 9.0 0.00 0.00 0.00 67 1014.3
20260507153504 58 141 3.0 9.0 0.00 0.00 0.00 66 1014.3
20260507152505 58 142 1.0 5.0 0.00 0.00 0.00 67 1014.4
20260507152005 58 140 2.0 7.0 0.00 0.00 0.00 67 1014.4
20260507151003 58 160 1.0 5.0 0.00 0.00 0.00 66 1014.5
20260507150505 58 180 1.0 5.0 0.00 0.00 0.00 67 1014.6
20260507145505 58 151 1.0 6.0 0.00 0.00 0.00 67 1014.5
20260507145003 58 155 2.0 8.0 0.00 0.00 0.00 67 1014.5
20260507144503 58 152 2.0 8.0 0.00 0.00 0.00 67 1014.5
20260507144005 58 153 1.0 8.0 0.00 0.00 0.00 67 1014.5
20260507142505 57 144 1.0 5.0 0.00 0.00 0.00 66 1014.8
20260507142003 57 141 1.0 4.0 0.00 0.00 0.00 67 1014.8
20260507141503 57 140 3.0 11.0 0.00 0.00 0.00 67 1014.8
20260507134505 58 144 4.0 9.0 0.00 0.00 0.00 65 1014.9
20260507132503 57 147 2.0 7.0 0.00 0.00 0.00 65 1014.9
20260507131005 57 131 3.0 9.0 0.00 0.00 0.00 62 1015.0
20260507125003 57 142 3.0 9.0 0.00 0.00 0.00 65 1015.1
20260507124005 57 149 4.0 11.0 0.00 0.00 0.00 64 1014.9
20260507123503 57 135 5.0 11.0 0.00 0.00 0.00 66 1014.9
20260507123003 57 133 5.0 11.0 0.00 0.00 0.00 64 1014.9
20260507122506 57 137 4.0 10.0 0.00 0.00 0.00 65 1014.8
20260507121503 58 131 5.0 10.0 0.00 0.00 0.00 66 1014.9
20260507121003 58 119 6.0 10.0 0.00 0.00 0.00 66 1014.8
20260507120505 58 127 7.0 11.0 0.00 0.00 0.00 65 1014.9
20260507120004 58 137 6.0 11.0 0.00 0.00 0.00 63 1015.0
20260507115503 59 137 5.0 11.0 0.00 0.00 0.00 64 1015.0
20260507115005 59 131 5.0 11.0 0.00 0.00 0.00 66 1015.1
20260507114505 58 117 6.0 12.0 0.00 0.00 0.00 66 1015.0
20260507113004 58 111 7.0 12.0 0.00 0.00 0.00 66 1015.1
20260507112505 58 109 6.0 12.0 0.00 0.00 0.00 67 1015.1
20260507111005 57 100 5.0 13.0 0.00 0.00 0.00 70 1015.2
20260507110504 57 108 7.0 13.0 0.00 0.00 0.00 72 1015.3
20260507104003 55 111 5.0 11.0 0.00 0.00 0.00 77 1015.7
20260507103503 54 109 4.0 11.0 0.00 0.00 0.00 78 1015.8
20260507102003 53 115 5.0 10.0 0.00 0.00 0.00 78 1015.9
20260507101005 53 121 6.0 12.0 0.00 0.00 0.00 81 1015.8
20260507100505 52 122 6.0 10.0 0.00 0.00 0.00 81 1015.8
20260507095003 50 93 5.0 8.0 0.00 0.00 0.00 82 1015.8
20260507094505 50 96 5.0 11.0 0.00 0.00 0.00 84 1015.8
20260507092005 48 98 5.0 9.0 0.00 0.00 0.00 84 1015.8
20260507091503 48 100 5.0 9.0 0.00 0.00 0.00 86 1015.8
20260507091005 48 94 4.0 8.0 0.00 0.00 0.00 86 1015.7
20260507090503 48 94 3.0 7.0 0.00 0.00 0.00 87 1015.7
20260507085003 47 99 3.0 7.0 0.00 0.00 0.00 89 1015.9
20260507084503 47 103 3.0 7.0 0.00 0.00 0.00 88 1015.8
20260507084005 47 99 3.0 7.0 0.00 0.00 0.00 89 1016.0
20260507083503 46 95 3.0 6.0 0.00 0.00 0.00 89 1015.9
20260507082505 46 90 2.0 6.0 0.00 0.00 0.00 89 1015.9
20260507082003 46 86 2.0 4.0 0.00 0.00 0.00 89 1015.9
20260507081503 46 88 2.0 6.0 0.00 0.00 0.00 89 1015.9
20260507081005 46 93 2.0 6.0 0.00 0.00 0.00 90 1015.9
20260507080503 46 96 2.0 4.0 0.00 0.00 0.00 90 1015.9
20260507080004 46 95 3.0 5.0 0.00 0.00 0.00 90 1015.8
20260507075505 45 89 2.0 5.0 0.00 0.00 0.00 90 1015.9
20260507075003 45 88 2.0 4.0 0.00 0.00 0.00 90 1015.9
20260507074503 45 99 2.0 6.0 0.00 0.00 0.00 90 1015.9
20260507073505 45 110 2.0 4.0 0.00 0.00 0.00 90 1015.8
20260507073004 45 108 2.0 6.0 0.00 0.00 0.00 90 1015.8
20260507072003 45 96 3.0 7.0 0.00 0.00 0.00 91 1015.7
20260507071003 44 89 2.0 4.0 0.00 0.00 0.00 91 1015.7
20260507070505 44 88 2.0 4.0 0.00 0.00 0.00 91 1015.7
20260507070010 44 94 2.0 4.0 0.00 0.00 0.00 91 1015.6
20260507065505 44 102 2.0 4.0 0.00 0.00 0.00 91 1015.5
20260507063505 44 85 2.0 4.0 0.00 0.00 0.00 91 1015.5
20260507063003 44 87 2.0 3.0 0.00 0.00 0.00 91 1015.5
20260507062003 44 74 1.0 4.0 0.00 0.00 0.00 92 1015.6
20260507061503 44 73 2.0 4.0 0.00 0.00 0.00 91 1015.5
20260507060503 43 80 1.0 4.0 0.00 0.00 0.00 91 1015.5
20260507060003 43 87 1.0 4.0 0.00 0.00 0.00 91 1015.6
20260507055505 43 90 2.0 4.0 0.00 0.00 0.00 91 1015.5
20260507054503 43 83 2.0 4.0 0.00 0.00 0.00 91 1015.5
20260507054005 43 83 1.0 3.0 0.00 0.00 0.00 91 1015.5
20260507053505 43 93 2.0 4.0 0.00 0.00 0.00 91 1015.5
20260507053004 43 92 2.0 4.0 0.00 0.00 0.00 91 1015.6
20260507052503 43 83 1.0 3.0 0.00 0.00 0.00 91 1015.6
20260507051503 43 80 1.0 4.0 0.00 0.00 0.00 91 1015.5
20260507051003 43 76 1.0 4.0 0.00 0.00 0.00 91 1015.5
20260507050008 43 102 1.0 3.0 0.00 0.00 0.00 91 1015.5
20260507045503 43 119 1.0 3.0 0.00 0.00 0.00 91 1015.5
20260507045005 43 103 1.0 4.0 0.00 0.00 0.00 91 1015.5
20260507044503 43 88 2.0 4.0 0.00 0.00 0.00 91 1015.4
20260507044003 43 88 1.0 3.0 0.00 0.00 0.00 91 1015.4
20260507043505 43 88 0.0 2.0 0.00 0.00 0.00 90 1015.3
20260507043003 43 0 0.0 0.0 0.00 0.00 0.00 91 1015.4
20260507042003 43 88 1.0 3.0 0.00 0.00 0.00 91 1015.3
20260507041505 43 88 1.0 3.0 0.00 0.00 0.00 90 1015.3
20260507041003 43 88 1.0 2.0 0.00 0.00 0.00 90 1015.3
20260507040503 43 88 1.0 3.0 0.00 0.00 0.00 90 1015.2
20260507040005 43 88 1.0 3.0 0.00 0.00 0.00 90 1015.3
20260507035505 43 88 1.0 3.0 0.00 0.00 0.00 90 1015.3
20260507035003 43 88 0.0 2.0 0.00 0.00 0.00 90 1015.4
20260507032503 44 88 2.0 3.0 0.00 0.00 0.00 90 1015.4
20260507032005 44 87 1.0 4.0 0.00 0.00 0.00 90 1015.3
20260507031003 44 91 2.0 3.0 0.00 0.00 0.00 90 1015.5
20260507030005 44 96 2.0 3.0 0.00 0.00 0.00 89 1015.4
20260507025504 44 85 2.0 4.0 0.00 0.00 0.00 89 1015.5
20260507025003 44 78 2.0 4.0 0.00 0.00 0.00 89 1015.4
20260507024507 44 82 2.0 4.0 0.00 0.00 0.00 89 1015.3
20260507023003 44 94 2.0 4.0 0.00 0.00 0.00 89 1015.3
20260507022506 44 103 2.0 4.0 0.00 0.00 0.00 89 1015.4
20260507022003 44 103 3.0 6.0 0.00 0.00 0.00 89 1015.4
20260507021505 44 93 2.0 6.0 0.00 0.00 0.00 89 1015.4
20260507021005 44 79 2.0 7.0 0.00 0.00 0.00 88 1015.3
20260507020003 44 77 3.0 6.0 0.00 0.00 0.00 88 1015.3
20260507015503 44 73 2.0 6.0 0.00 0.00 0.00 88 1015.2
20260507015005 44 62 2.0 6.0 0.00 0.00 0.00 88 1015.2
20260507014005 44 78 1.0 5.0 0.00 0.00 0.00 88 1015.2
20260507013503 44 78 2.0 5.0 0.00 0.00 0.00 88 1015.3
20260507012505 44 79 2.0 5.0 0.00 0.00 0.00 87 1015.3
20260507010003 45 79 2.0 4.0 0.00 0.00 0.00 87 1015.4
20260507005505 45 81 1.0 4.0 0.00 0.00 0.00 87 1015.4
20260507005005 45 84 1.0 4.0 0.00 0.00 0.00 87 1015.1
20260507004503 45 106 2.0 4.0 0.00 0.00 0.00 87 1015.2
20260507004003 45 120 2.0 3.0 0.00 0.00 0.00 87 1015.2
20260507003004 45 90 1.0 4.0 0.00 0.00 0.00 86 1015.2
20260507002503 45 89 1.0 4.0 0.00 0.00 0.00 86 1015.2
20260507002005 45 83 2.0 6.0 0.00 0.00 0.00 86 1015.4
20260507000505 45 87 3.0 8.0 0.00 0.00 0.00 86 1015.3
20260506235505 45 86 3.0 10.0 0.00 0.00 0.00 86 1015.3
20260506234506 45 89 4.0 8.0 0.00 0.00 0.00 85 1015.3
20260506233505 46 83 4.0 10.0 0.00 0.00 0.00 85 1015.2
20260506233005 46 80 4.0 10.0 0.00 0.00 0.00 85 1015.2
20260506230505 46 90 4.0 10.0 0.00 0.00 0.00 84 1015.2
20260506230004 46 94 3.0 9.0 0.00 0.00 0.00 83 1015.2
20260506225506 46 97 3.0 8.0 0.00 0.00 0.00 83 1015.1
20260506225003 46 95 3.0 8.0 0.00 0.00 0.00 83 1015.1
20260506224505 46 93 3.0 9.0 0.00 0.00 0.00 82 1015.1
20260506223505 46 96 4.0 9.0 0.00 0.00 0.00 82 1015.1
20260506223003 47 96 4.0 9.0 0.00 0.00 0.00 81 1015.1
20260506222503 47 92 4.0 9.0 0.00 0.00 0.00 81 1015.1
20260506221003 47 90 3.0 9.0 0.00 0.00 0.00 80 1015.2
20260506220505 47 95 3.0 6.0 0.00 0.00 0.00 79 1015.1
20260506220003 47 96 3.0 10.0 0.00 0.00 0.00 79 1015.2
20260506215503 48 96 4.0 10.0 0.00 0.00 0.00 78 1015.1
20260506215006 48 94 3.0 10.0 0.00 0.00 0.00 78 1015.1
20260506214505 48 87 3.0 10.0 0.00 0.00 0.00 78 1015.0
20260506213505 48 76 3.0 8.0 0.00 0.00 0.00 77 1014.9
20260506213004 48 76 3.0 7.0 0.00 0.00 0.00 77 1014.9
20260506212503 48 77 3.0 7.0 0.00 0.00 0.00 76 1014.8
20260506210505 48 80 3.0 8.0 0.00 0.00 0.00 75 1014.7
20260506205505 48 88 2.0 6.0 0.00 0.00 0.00 74 1014.7
20260506204005 48 86 2.0 6.0 0.00 0.00 0.00 73 1014.7
20260506203503 48 84 2.0 8.0 0.00 0.00 0.00 72 1014.6
20260506203003 49 84 2.0 8.0 0.00 0.00 0.00 72 1014.6
20260506202005 49 59 1.0 5.0 0.00 0.00 0.00 70 1014.4
20260506201503 49 49 1.0 5.0 0.00 0.00 0.00 69 1014.4
20260506200505 50 68 1.0 5.0 0.00 0.00 0.00 69 1014.3
20260506195505 50 87 2.0 7.0 0.00 0.00 0.00 68 1014.2
20260506195003 50 85 2.0 6.0 0.00 0.00 0.00 67 1014.2
20260506194503 50 84 2.0 6.0 0.00 0.00 0.00 66 1014.1
20260506194005 51 86 2.0 6.0 0.00 0.00 0.00 66 1014.1
20260506193503 51 78 1.0 6.0 0.00 0.00 0.00 65 1014.1
20260506193003 51 64 1.0 4.0 0.00 0.00 0.00 64 1014.1
20260506192505 52 65 0.0 2.0 0.00 0.00 0.00 63 1014.1
20260506192003 52 65 0.0 3.0 0.00 0.00 0.00 64 1014.0
20260506191503 52 70 1.0 3.0 0.00 0.00 0.00 63 1013.9
20260506191005 52 81 1.0 3.0 0.00 0.00 0.00 62 1013.9
20260506190503 52 92 1.0 3.0 0.00 0.00 0.00 62 1013.9
20260506190007 53 102 1.0 4.0 0.00 0.00 0.00 61 1013.9
20260506185003 53 110 1.0 3.0 0.00 0.00 0.00 59 1014.0
20260506184505 53 76 1.0 4.0 0.00 0.00 0.00 59 1014.0
20260506183005 54 67 2.0 7.0 0.00 0.00 0.00 57 1013.9
20260506182505 54 74 2.0 7.0 0.00 0.00 0.00 57 1013.9
20260506182003 55 94 2.0 6.0 0.00 0.00 0.00 58 1013.9
20260506181503 55 91 2.0 6.0 0.00 0.00 0.00 57 1013.9
20260506181005 55 94 2.0 7.0 0.00 0.00 0.00 57 1013.8
20260506180505 55 93 2.0 7.0 0.00 0.00 0.00 56 1013.8
20260506180006 55 89 2.0 7.0 0.00 0.00 0.00 55 1013.8
20260506175003 55 86 2.0 7.0 0.00 0.00 0.00 55 1013.7
20260506174503 56 76 2.0 7.0 0.00 0.00 0.00 55 1013.8
20260506173503 56 24 1.0 5.0 0.00 0.00 0.00 56 1013.7
20260506173003 56 2 2.0 5.0 0.00 0.00 0.00 58 1013.7
20260506172505 56 2 3.0 5.0 0.00 0.00 0.00 57 1013.8
20260506172005 56 8 2.0 6.0 0.00 0.00 0.00 57 1013.8
20260506171505 56 15 2.0 6.0 0.00 0.00 0.00 57 1013.7
20260506170005 56 28 3.0 8.0 0.00 0.00 0.00 57 1013.7
20260506165005 56 15 4.0 8.0 0.00 0.00 0.00 56 1013.6
20260506162505 56 89 3.0 9.0 0.00 0.00 0.00 52 1013.6